owner,sensor,date,latitude,longitude,vertical_datum,wind_speed,wind_to_direction,wind_speed_of_gust,qcFlag 
TABS,ioos:station:wmo:42043:1,2008-03-01T00:00:00Z,28.9818,-94.9186,4.0,3.317664841,109.3637735,4.08,'11111222,11111222,11111222' 
TABS,ioos:station:wmo:42043:1,2008-03-01T00:30:00Z,28.9818,-94.9186,4.0,3.574590886,114.9882062,4.32,'11111222,11111222,11111222' 
TABS,ioos:station:wmo:42043:1,2008-03-01T01:00:00Z,28.9818,-94.9186,4.0,4.191443665,115.2815176,5.39,'11111222,11111222,11111222' 
TABS,ioos:station:wmo:42043:1,2008-03-01T01:30:00Z,28.9818,-94.9186,4.0,3.901602235,120.8381807,4.88,'11111222,11111222,11111222' 
TABS,ioos:station:wmo:42043:1,2008-03-01T02:00:00Z,28.9818,-94.9186,4.0,4.068316605,121.737018,4.83,'11111222,11111222,11111222' 
TABS,ioos:station:wmo:42043:1,2008-03-01T02:30:00Z,28.9818,-94.9186,4.0,3.604677517,117.0630023,4.34,'11111222,11111222,11111222' 
TABS,ioos:station:wmo:42043:1,2008-03-01T03:00:00Z,28.9818,-94.9186,4.0,3.619060652,110.0375842,4.58,'11111222,11111222,11111222' 
TABS,ioos:station:wmo:42043:1,2008-03-01T03:30:00Z,28.9818,-94.9186,4.0,3.40543683,118.5973861,4.24,'11111222,11111222,11111222' 
TABS,ioos:station:wmo:42043:1,2008-03-01T04:00:00Z,28.9818,-94.9186,4.0,3.260337406,116.0152629,3.92,'11111222,11111222,11111222' 
TABS,ioos:station:wmo:42043:1,2008-03-01T04:30:00Z,28.9818,-94.9186,4.0,3.378816361,120.2079628,4.13,'11111222,11111222,11111222' 
TABS,ioos:station:wmo:42043:1,2008-03-01T05:00:00Z,28.9818,-94.9186,4.0,3.104593371,115.162195,3.84,'11111222,11111222,11111222' 
TABS,ioos:station:wmo:42043:1,2008-03-01T05:30:00Z,28.9818,-94.9186,4.0,3.330840735,135.8517806,4.16,'11111222,11111222,11111222' 
TABS,ioos:station:wmo:42043:1,2008-03-01T06:00:00Z,28.9818,-94.9186,4.0,3.072588485,113.394839,3.67,'11111222,11111222,11111222' 
TABS,ioos:station:wmo:42043:1,2008-03-01T06:30:00Z,28.9818,-94.9186,4.0,3.27914623,100.8991212,3.97,'11111222,11111222,11111222' 
TABS,ioos:station:wmo:42043:1,2008-03-01T07:00:00Z,28.9818,-94.9186,4.0,3.298742185,104.7527898,4.02,'11111222,11111222,11111222' 
TABS,ioos:station:wmo:42043:1,2008-03-01T07:30:00Z,28.9818,-94.9186,4.0,3.302196239,105.6359475,3.95,'11111222,11111222,11111222' 
TABS,ioos:station:wmo:42043:1,2008-03-01T08:00:00Z,28.9818,-94.9186,4.0,3.28878397,104.078885,4.27,'11111222,11111222,11111222' 
TABS,ioos:station:wmo:42043:1,2008-03-01T08:30:00Z,28.9818,-94.9186,4.0,3.175059055,103.2925741,3.87,'11111222,11111222,11111222' 
TABS,ioos:station:wmo:42043:1,2008-03-01T09:00:00Z,28.9818,-94.9186,4.0,3.270611564,105.6088918,4.05,'11111222,11111222,11111222' 
TABS,ioos:station:wmo:42043:1,2008-03-01T09:30:00Z,28.9818,-94.9186,4.0,3.34902971,97.54982503,4.19,'11111222,11111222,11111222' 
TABS,ioos:station:wmo:42043:1,2008-03-01T10:00:00Z,28.9818,-94.9186,4.0,3.440014535,89.83302244,4.17,'11111222,11111222,11111222' 
TABS,ioos:station:wmo:42043:1,2008-03-01T10:30:00Z,28.9818,-94.9186,4.0,3.893545942,82.47302362,4.64,'11111222,11111222,11111222' 
TABS,ioos:station:wmo:42043:1,2008-03-01T11:00:00Z,28.9818,-94.9186,4.0,3.552759491,99.88692904,4.43,'11111222,11111222,11111222' 
TABS,ioos:station:wmo:42043:1,2008-03-01T11:30:00Z,28.9818,-94.9186,4.0,3.163036516,99.462721,3.84,'11111222,11111222,11111222' 
TABS,ioos:station:wmo:42043:1,2008-03-01T12:00:00Z,28.9818,-94.9186,4.0,3.111607302,91.84209011,3.82,'11111222,11111222,11111222' 
TABS,ioos:station:wmo:42043:1,2008-03-01T12:30:00Z,28.9818,-94.9186,4.0,2.69081772,112.2762667,3.36,'11111222,11111222,11111222' 
TABS,ioos:station:wmo:42043:1,2008-03-01T13:00:00Z,28.9818,-94.9186,4.0,2.868815086,107.2352626,3.45,'11111222,11111222,11111222' 
TABS,ioos:station:wmo:42043:1,2008-03-01T13:30:00Z,28.9818,-94.9186,4.0,3.163036516,122.0825331,4.0,'11111222,11111222,11111222' 
TABS,ioos:station:wmo:42043:1,2008-03-01T14:00:00Z,28.9818,-94.9186,4.0,3.009867107,124.8520055,3.67,'11111222,11111222,11111222' 
TABS,ioos:station:wmo:42043:1,2008-03-01T14:30:00Z,28.9818,-94.9186,4.0,2.834254752,119.3691178,3.45,'11111222,11111222,11111222' 
TABS,ioos:station:wmo:42043:1,2008-03-01T15:00:00Z,28.9818,-94.9186,4.0,2.862254356,117.0130231,3.48,'11111222,11111222,11111222' 
TABS,ioos:station:wmo:42043:1,2008-03-01T15:30:00Z,28.9818,-94.9186,4.0,2.605091169,120.7000717,3.13,'11111222,11111222,11111222' 
TABS,ioos:station:wmo:42043:1,2008-03-01T16:00:00Z,28.9818,-94.9186,4.0,2.798660394,101.7519805,3.39,'11111222,11111222,11111222' 
TABS,ioos:station:wmo:42043:1,2008-03-01T16:30:00Z,28.9818,-94.9186,4.0,2.567839559,108.8586858,3.21,'11111222,11111222,11111222' 
TABS,ioos:station:wmo:42043:1,2008-03-01T17:00:00Z,28.9818,-94.9186,4.0,2.375394704,102.3983876,3.09,'11111222,11111222,11111222' 
TABS,ioos:station:wmo:42043:1,2008-03-01T17:30:00Z,28.9818,-94.9186,4.0,2.746506872,122.3595381,3.63,'11111222,11111222,11111222' 
TABS,ioos:station:wmo:42043:1,2008-03-01T18:00:00Z,28.9818,-94.9186,4.0,2.513662666,117.4828775,3.14,'11111222,11111222,11111222' 
TABS,ioos:station:wmo:42043:1,2008-03-01T18:30:00Z,28.9818,-94.9186,4.0,3.676044069,127.1507855,4.47,'11111222,11111222,11111222' 
TABS,ioos:station:wmo:42043:1,2008-03-01T19:00:00Z,28.9818,-94.9186,4.0,3.249923076,119.0892043,4.35,'11111222,11111222,11111222' 
TABS,ioos:station:wmo:42043:1,2008-03-01T19:30:00Z,28.9818,-94.9186,4.0,3.242992445,117.750668,4.15,'11111222,11111222,11111222' 
TABS,ioos:station:wmo:42043:1,2008-03-01T20:00:00Z,28.9818,-94.9186,4.0,3.594342777,114.1408906,4.29,'11111222,11111222,11111222' 
TABS,ioos:station:wmo:42043:1,2008-03-01T20:30:00Z,28.9818,-94.9186,4.0,3.70021621,113.2396212,4.59,'11111222,11111222,11111222' 
TABS,ioos:station:wmo:42043:1,2008-03-01T21:00:00Z,28.9818,-94.9186,4.0,3.355294324,115.0378881,4.04,'11111222,11111222,11111222' 
TABS,ioos:station:wmo:42043:1,2008-03-01T21:30:00Z,28.9818,-94.9186,4.0,3.653833603,100.7260116,4.36,'11111222,11111222,11111222' 
TABS,ioos:station:wmo:42043:1,2008-03-01T22:00:00Z,28.9818,-94.9186,4.0,3.864000518,106.2309315,4.62,'11111222,11111222,11111222' 
TABS,ioos:station:wmo:42043:1,2008-03-01T22:30:00Z,28.9818,-94.9186,4.0,3.706008635,104.374102,4.49,'11111222,11111222,11111222' 
TABS,ioos:station:wmo:42043:1,2008-03-01T23:00:00Z,28.9818,-94.9186,4.0,3.672124726,109.570234,4.34,'11111222,11111222,11111222' 
TABS,ioos:station:wmo:42043:1,2008-03-01T23:30:00Z,28.9818,-94.9186,4.0,3.603470549,114.0758629,4.61,'11111222,11111222,11111222' 
TABS,ioos:station:wmo:42043:1,2008-03-02T00:00:00Z,28.9818,-94.9186,4.0,4.114608122,115.9426557,4.92,'11111222,11111222,11111222' 
TABS,ioos:station:wmo:42043:1,2008-03-02T00:30:00Z,28.9818,-94.9186,4.0,4.452605979,113.2834391,5.16,'11111222,11111222,11111222' 
TABS,ioos:station:wmo:42043:1,2008-03-02T01:00:00Z,28.9818,-94.9186,4.0,4.66,116.7853538,5.6,'11111222,11111222,11111222' 
TABS,ioos:station:wmo:42043:1,2008-03-02T01:30:00Z,28.9818,-94.9186,4.0,5.354213294,120.7805834,6.16,'11111222,11111222,11111222' 
TABS,ioos:station:wmo:42043:1,2008-03-02T02:00:00Z,28.9818,-94.9186,4.0,5.037072563,129.4417983,6.12,'11111222,11111222,11111222' 
TABS,ioos:station:wmo:42043:1,2008-03-02T02:30:00Z,28.9818,-94.9186,4.0,5.031709451,137.3359742,6.05,'11111222,11111222,11111222' 
TABS,ioos:station:wmo:42043:1,2008-03-02T03:00:00Z,28.9818,-94.9186,4.0,5.056332663,142.4731598,6.38,'11111222,11111222,11111222' 
TABS,ioos:station:wmo:42043:1,2008-03-02T03:30:00Z,28.9818,-94.9186,4.0,4.861738372,141.5981648,5.77,'11111222,11111222,11111222' 
TABS,ioos:station:wmo:42043:1,2008-03-02T04:00:00Z,28.9818,-94.9186,4.0,4.42304194,141.8867269,5.57,'11111222,11111222,11111222' 
TABS,ioos:station:wmo:42043:1,2008-03-02T04:30:00Z,28.9818,-94.9186,4.0,4.561852694,141.4974128,5.41,'11111222,11111222,11111222' 
TABS,ioos:station:wmo:42043:1,2008-03-02T05:00:00Z,28.9818,-94.9186,4.0,4.59200392,143.0555354,5.66,'11111222,11111222,11111222' 
TABS,ioos:station:wmo:42043:1,2008-03-02T05:30:00Z,28.9818,-94.9186,4.0,4.268981143,147.2408683,5.29,'11111222,11111222,11111222' 
TABS,ioos:station:wmo:42043:1,2008-03-02T06:00:00Z,28.9818,-94.9186,4.0,3.868656097,154.0975693,4.95,'11111222,11111222,11111222' 
TABS,ioos:station:wmo:42043:1,2008-03-02T06:30:00Z,28.9818,-94.9186,4.0,4.617066168,151.8255929,6.24,'11111222,11111222,11111222' 
TABS,ioos:station:wmo:42043:1,2008-03-02T07:00:00Z,28.9818,-94.9186,4.0,5.511533362,147.1463847,6.89,'11111222,11111222,11111222' 
TABS,ioos:station:wmo:42043:1,2008-03-02T07:30:00Z,28.9818,-94.9186,4.0,4.905058613,151.2406592,5.75,'11111222,11111222,11111222' 
TABS,ioos:station:wmo:42043:1,2008-03-02T08:00:00Z,28.9818,-94.9186,4.0,4.745039515,153.057216,5.67,'11111222,11111222,11111222' 
TABS,ioos:station:wmo:42043:1,2008-03-02T08:30:00Z,28.9818,-94.9186,4.0,4.414034436,157.9096042,5.94,'11111222,11111222,11111222' 
TABS,ioos:station:wmo:42043:1,2008-03-02T09:00:00Z,28.9818,-94.9186,4.0,5.047692542,157.3978613,6.25,'11111222,11111222,11111222' 
TABS,ioos:station:wmo:42043:1,2008-03-02T09:30:00Z,28.9818,-94.9186,4.0,4.42284976,155.9851645,5.66,'11111222,11111222,11111222' 
TABS,ioos:station:wmo:42043:1,2008-03-02T10:00:00Z,28.9818,-94.9186,4.0,4.020174126,149.6720322,4.88,'11111222,11111222,11111222' 
TABS,ioos:station:wmo:42043:1,2008-03-02T10:30:00Z,28.9818,-94.9186,4.0,4.044007913,145.6814882,5.04,'11111222,11111222,11111222' 
TABS,ioos:station:wmo:42043:1,2008-03-02T11:00:00Z,28.9818,-94.9186,4.0,4.531942189,146.0647706,5.71,'11111222,11111222,11111222' 
TABS,ioos:station:wmo:42043:1,2008-03-02T11:30:00Z,28.9818,-94.9186,4.0,4.037140077,139.7222767,4.82,'11111222,11111222,11111222' 
TABS,ioos:station:wmo:42043:1,2008-03-02T12:00:00Z,28.9818,-94.9186,4.0,4.471465084,147.2342649,5.59,'11111222,11111222,11111222' 
TABS,ioos:station:wmo:42043:1,2008-03-02T12:30:00Z,28.9818,-94.9186,4.0,4.602575366,147.6914043,5.37,'11111222,11111222,11111222' 
TABS,ioos:station:wmo:42043:1,2008-03-02T13:00:00Z,28.9818,-94.9186,4.0,4.790041753,142.8911702,5.68,'11111222,11111222,11111222' 
TABS,ioos:station:wmo:42043:1,2008-03-02T13:30:00Z,28.9818,-94.9186,4.0,4.546053233,143.4076745,5.39,'11111222,11111222,11111222' 
TABS,ioos:station:wmo:42043:1,2008-03-02T14:00:00Z,28.9818,-94.9186,4.0,4.015196135,144.5289685,4.77,'11111222,11111222,11111222' 
TABS,ioos:station:wmo:42043:1,2008-03-02T14:30:00Z,28.9818,-94.9186,4.0,3.620952913,147.9781294,4.33,'11111222,11111222,11111222' 
TABS,ioos:station:wmo:42043:1,2008-03-02T15:00:00Z,28.9818,-94.9186,4.0,4.016030378,146.2706529,4.89,'11111222,11111222,11111222' 
TABS,ioos:station:wmo:42043:1,2008-03-02T15:30:00Z,28.9818,-94.9186,4.0,3.763004119,140.1752375,4.47,'11111222,11111222,11111222' 
TABS,ioos:station:wmo:42043:1,2008-03-02T16:00:00Z,28.9818,-94.9186,4.0,3.93208596,142.7515422,4.79,'11111222,11111222,11111222' 
TABS,ioos:station:wmo:42043:1,2008-03-02T16:30:00Z,28.9818,-94.9186,4.0,4.044267548,147.2139875,4.9,'11111222,11111222,11111222' 
TABS,ioos:station:wmo:42043:1,2008-03-02T17:00:00Z,28.9818,-94.9186,4.0,3.647163281,146.1795094,4.78,'11111222,11111222,11111222' 
TABS,ioos:station:wmo:42043:1,2008-03-02T17:30:00Z,28.9818,-94.9186,4.0,4.491347237,150.5243904,5.61,'11111222,11111222,11111222' 
TABS,ioos:station:wmo:42043:1,2008-03-02T18:00:00Z,28.9818,-94.9186,4.0,5.230716968,148.9238137,6.56,'11111222,11111222,11111222' 
TABS,ioos:station:wmo:42043:1,2008-03-02T18:30:00Z,28.9818,-94.9186,4.0,5.425099077,148.1852152,6.55,'11111222,11111222,11111222' 
TABS,ioos:station:wmo:42043:1,2008-03-02T19:00:00Z,28.9818,-94.9186,4.0,5.274097079,149.8376815,6.6,'11111222,11111222,11111222' 
TABS,ioos:station:wmo:42043:1,2008-03-02T19:30:00Z,28.9818,-94.9186,4.0,5.808347441,147.1583761,7.28,'11111222,11111222,11111222' 
TABS,ioos:station:wmo:42043:1,2008-03-02T20:00:00Z,28.9818,-94.9186,4.0,6.160008117,146.0522512,7.38,'11111222,11111222,11111222' 
TABS,ioos:station:wmo:42043:1,2008-03-02T20:30:00Z,28.9818,-94.9186,4.0,6.705415722,144.9592715,8.48,'11111222,11111222,11111222' 
TABS,ioos:station:wmo:42043:1,2008-03-02T21:00:00Z,28.9818,-94.9186,4.0,6.707197626,147.2342649,8.83,'11111222,11111222,11111222' 
TABS,ioos:station:wmo:42043:1,2008-03-02T21:30:00Z,28.9818,-94.9186,4.0,6.250839944,147.8102975,7.77,'11111222,11111222,11111222' 
TABS,ioos:station:wmo:42043:1,2008-03-02T22:00:00Z,28.9818,-94.9186,4.0,6.956241801,142.6526718,8.82,'11111222,11111222,11111222' 
TABS,ioos:station:wmo:42043:1,2008-03-02T22:30:00Z,28.9818,-94.9186,4.0,7.181538832,145.3808258,9.3,'11111222,11111222,11111222' 
TABS,ioos:station:wmo:42043:1,2008-03-02T23:00:00Z,28.9818,-94.9186,4.0,7.084546563,143.8421096,8.62,'11111222,11111222,11111222' 
TABS,ioos:station:wmo:42043:1,2008-03-02T23:30:00Z,28.9818,-94.9186,4.0,7.295615121,148.794092,8.97,'11111222,11111222,11111222' 
TABS,ioos:station:wmo:42043:1,2008-03-03T00:00:00Z,28.9818,-94.9186,4.0,7.392455614,148.1592138,9.52,'11111222,11111222,11111222' 
TABS,ioos:station:wmo:42043:1,2008-03-03T00:30:00Z,28.9818,-94.9186,4.0,7.155892677,145.821666,8.64,'11111222,11111222,11111222' 
TABS,ioos:station:wmo:42043:1,2008-03-03T01:00:00Z,28.9818,-94.9186,4.0,6.727867418,147.7511691,8.09,'11111222,11111222,11111222' 
TABS,ioos:station:wmo:42043:1,2008-03-03T01:30:00Z,28.9818,-94.9186,4.0,8.044799562,151.6512841,9.7,'11111222,11111222,11111222' 
TABS,ioos:station:wmo:42043:1,2008-03-03T02:00:00Z,28.9818,-94.9186,4.0,8.368159893,156.7747031,10.77,'11111222,11111222,11111222' 
TABS,ioos:station:wmo:42043:1,2008-03-03T02:30:00Z,28.9818,-94.9186,4.0,7.891165947,160.5320284,9.75,'11111222,11111222,11111222' 
TABS,ioos:station:wmo:42043:1,2008-03-03T03:00:00Z,28.9818,-94.9186,4.0,7.912445892,160.9699278,9.87,'11111222,11111222,11111222' 
TABS,ioos:station:wmo:42043:1,2008-03-03T03:30:00Z,28.9818,-94.9186,4.0,8.36900233,162.6911513,10.22,'11111222,11111222,11111222' 
TABS,ioos:station:wmo:42043:1,2008-03-03T04:00:00Z,28.9818,-94.9186,4.0,9.520021008,157.2600296,11.38,'11111222,11111222,11111222' 
TABS,ioos:station:wmo:42043:1,2008-03-03T04:30:00Z,28.9818,-94.9186,4.0,8.35153878,157.3962303,10.32,'11111222,11111222,11111222' 
TABS,ioos:station:wmo:42043:1,2008-03-03T05:00:00Z,28.9818,-94.9186,4.0,7.838475617,155.9858255,9.81,'11111222,11111222,11111222' 
TABS,ioos:station:wmo:42043:1,2008-03-03T05:30:00Z,28.9818,-94.9186,4.0,8.343530428,158.6324186,10.21,'11111222,11111222,11111222' 
TABS,ioos:station:wmo:42043:1,2008-03-03T06:00:00Z,28.9818,-94.9186,4.0,8.688900966,158.6029394,11.04,'11111222,11111222,11111222' 
TABS,ioos:station:wmo:42043:1,2008-03-03T06:30:00Z,28.9818,-94.9186,4.0,8.684267384,155.9439931,11.09,'11111222,11111222,11111222' 
TABS,ioos:station:wmo:42043:1,2008-03-03T07:00:00Z,28.9818,-94.9186,4.0,8.530844038,158.1863801,10.81,'11111222,11111222,11111222' 
TABS,ioos:station:wmo:42043:1,2008-03-03T07:30:00Z,28.9818,-94.9186,4.0,7.586310038,161.6369541,9.68,'11111222,11111222,11111222' 
TABS,ioos:station:wmo:42043:1,2008-03-03T08:00:00Z,28.9818,-94.9186,4.0,5.579551953,162.7993738,7.78,'11111222,11111222,11111222' 
TABS,ioos:station:wmo:42043:1,2008-03-03T08:30:00Z,28.9818,-94.9186,4.0,3.86684626,167.1500012,4.84,'11111222,11111222,11111222' 
TABS,ioos:station:wmo:42043:1,2008-03-03T09:00:00Z,28.9818,-94.9186,4.0,3.846153923,157.3689393,4.81,'11111222,11111222,11111222' 
TABS,ioos:station:wmo:42043:1,2008-03-03T09:30:00Z,28.9818,-94.9186,4.0,6.40740197,155.2750913,9.39,'11111222,11111222,11111222' 
TABS,ioos:station:wmo:42043:1,2008-03-03T10:00:00Z,28.9818,-94.9186,4.0,8.162315848,157.2994038,10.97,'11111222,11111222,11111222' 
TABS,ioos:station:wmo:42043:1,2008-03-03T10:30:00Z,28.9818,-94.9186,4.0,6.75709997,148.8038549,8.67,'11111222,11111222,11111222' 
TABS,ioos:station:wmo:42043:1,2008-03-03T11:00:00Z,28.9818,-94.9186,4.0,6.479830245,148.2479648,8.89,'11111222,11111222,11111222' 
TABS,ioos:station:wmo:42043:1,2008-03-03T11:30:00Z,28.9818,-94.9186,4.0,5.899033819,152.8705366,7.78,'11111222,11111222,11111222' 
TABS,ioos:station:wmo:42043:1,2008-03-03T12:00:00Z,28.9818,-94.9186,4.0,5.027325333,152.5177539,6.29,'11111222,11111222,11111222' 
TABS,ioos:station:wmo:42043:1,2008-03-03T12:30:00Z,28.9818,-94.9186,4.0,4.74523972,152.7872304,5.82,'11111222,11111222,11111222' 
TABS,ioos:station:wmo:42043:1,2008-03-03T13:00:00Z,28.9818,-94.9186,4.0,4.632763754,145.1095905,5.79,'11111222,11111222,11111222' 
TABS,ioos:station:wmo:42043:1,2008-03-03T13:30:00Z,28.9818,-94.9186,4.0,3.310498452,150.1051295,4.43,'11111222,11111222,11111222' 
TABS,ioos:station:wmo:42043:1,2008-03-03T14:00:00Z,28.9818,-94.9186,4.0,4.310185611,161.6073412,5.91,'11111222,11111222,11111222' 
TABS,ioos:station:wmo:42043:1,2008-03-03T14:30:00Z,28.9818,-94.9186,4.0,6.506834868,167.3950252,10.13,'11111222,11111222,11111222' 
TABS,ioos:station:wmo:42043:1,2008-03-03T15:00:00Z,28.9818,-94.9186,4.0,8.0173437,173.7705209,11.09,'11111222,11111222,11111222' 
TABS,ioos:station:wmo:42043:1,2008-03-03T15:30:00Z,28.9818,-94.9186,4.0,6.755679092,183.9045412,8.5,'11111222,11111222,11111222' 
TABS,ioos:station:wmo:42043:1,2008-03-03T16:00:00Z,28.9818,-94.9186,4.0,5.767529801,193.8436694,7.41,'11111222,11111222,11111222' 
TABS,ioos:station:wmo:42043:1,2008-03-03T16:30:00Z,28.9818,-94.9186,4.0,5.921216091,206.9113926,8.81,'11111222,11111222,11111222' 
TABS,ioos:station:wmo:42043:1,2008-03-03T17:00:00Z,28.9818,-94.9186,4.0,6.994426352,190.3783009,8.69,'11111222,11111222,11111222' 
TABS,ioos:station:wmo:42043:1,2008-03-03T17:30:00Z,28.9818,-94.9186,4.0,5.904786194,186.2225173,7.52,'11111222,11111222,11111222' 
TABS,ioos:station:wmo:42043:1,2008-03-03T18:00:00Z,28.9818,-94.9186,4.0,6.748518356,186.1247445,8.6,'11111222,11111222,11111222' 
TABS,ioos:station:wmo:42043:1,2008-03-03T18:30:00Z,28.9818,-94.9186,4.0,7.653417537,192.2204269,10.01,'11111222,11111222,11111222' 
TABS,ioos:station:wmo:42043:1,2008-03-03T19:00:00Z,28.9818,-94.9186,4.0,7.085344028,193.1342021,9.33,'11111222,11111222,11111222' 
TABS,ioos:station:wmo:42043:1,2008-03-03T19:30:00Z,28.9818,-94.9186,4.0,5.980108695,265.3000224,16.11,'11111222,11111222,11111222' 
TABS,ioos:station:wmo:42043:1,2008-03-03T20:00:00Z,28.9818,-94.9186,4.0,11.67839458,306.3988183,15.27,'11111222,11111222,11111222' 
TABS,ioos:station:wmo:42043:1,2008-03-03T20:30:00Z,28.9818,-94.9186,4.0,11.42604481,306.7093479,15.44,'11111222,11111222,11111222' 
TABS,ioos:station:wmo:42043:1,2008-03-03T21:00:00Z,28.9818,-94.9186,4.0,11.18068424,310.8290915,17.56,'11111222,11111222,11111222' 
TABS,ioos:station:wmo:42043:1,2008-03-03T21:30:00Z,28.9818,-94.9186,4.0,10.72074624,310.7635099,13.53,'11111222,11111222,11111222' 
TABS,ioos:station:wmo:42043:1,2008-03-03T22:00:00Z,28.9818,-94.9186,4.0,9.670930669,319.7391723,12.8,'11111222,11111222,11111222' 
TABS,ioos:station:wmo:42043:1,2008-03-03T22:30:00Z,28.9818,-94.9186,4.0,11.78122659,300.2213596,14.63,'11111222,11111222,11111222' 
TABS,ioos:station:wmo:42043:1,2008-03-03T23:00:00Z,28.9818,-94.9186,4.0,11.63699274,306.1214062,15.12,'11111222,11111222,11111222' 
TABS,ioos:station:wmo:42043:1,2008-03-03T23:30:00Z,28.9818,-94.9186,4.0,13.06185285,301.4752388,17.82,'11111222,11111222,11111222' 
TABS,ioos:station:wmo:42043:1,2008-03-04T00:00:00Z,28.9818,-94.9186,4.0,12.21754885,310.7181917,15.43,'11111222,11111222,11111222' 
TABS,ioos:station:wmo:42043:1,2008-03-04T00:30:00Z,28.9818,-94.9186,4.0,13.25765062,304.0855382,17.38,'11111222,11111222,11111222' 
TABS,ioos:station:wmo:42043:1,2008-03-04T01:00:00Z,28.9818,-94.9186,4.0,13.08429593,306.4844598,16.49,'11111222,11111222,11111222' 
TABS,ioos:station:wmo:42043:1,2008-03-04T01:30:00Z,28.9818,-94.9186,4.0,14.68338517,294.4180626,18.95,'11111222,11111222,11111222' 
TABS,ioos:station:wmo:42043:1,2008-03-04T02:00:00Z,28.9818,-94.9186,4.0,13.28195769,301.7035145,16.96,'11111222,11111222,11111222' 
TABS,ioos:station:wmo:42043:1,2008-03-04T02:30:00Z,28.9818,-94.9186,4.0,13.94773458,297.8694432,19.25,'11111222,11111222,11111222' 
TABS,ioos:station:wmo:42043:1,2008-03-04T03:00:00Z,28.9818,-94.9186,4.0,14.56250322,288.7459539,19.05,'11111222,11111222,11111222' 
TABS,ioos:station:wmo:42043:1,2008-03-04T03:30:00Z,28.9818,-94.9186,4.0,15.37598777,286.6670828,21.45,'11111222,11111222,11111222' 
TABS,ioos:station:wmo:42043:1,2008-03-04T04:00:00Z,28.9818,-94.9186,4.0,14.49301211,285.7335758,19.43,'11111222,11111222,11111222' 
TABS,ioos:station:wmo:42043:1,2008-03-04T04:30:00Z,28.9818,-94.9186,4.0,14.40402721,286.3715438,18.77,'11111222,11111222,11111222' 
TABS,ioos:station:wmo:42043:1,2008-03-04T05:00:00Z,28.9818,-94.9186,4.0,14.49613052,285.4838761,19.24,'11111222,11111222,11111222' 
TABS,ioos:station:wmo:42043:1,2008-03-04T05:30:00Z,28.9818,-94.9186,4.0,13.55241676,291.3774193,18.07,'11111222,11111222,11111222' 
TABS,ioos:station:wmo:42043:1,2008-03-04T06:00:00Z,28.9818,-94.9186,4.0,13.2600641,287.8746752,17.23,'11111222,11111222,11111222' 
TABS,ioos:station:wmo:42043:1,2008-03-04T06:30:00Z,28.9818,-94.9186,4.0,13.07948011,285.8851868,17.04,'11111222,11111222,11111222' 
TABS,ioos:station:wmo:42043:1,2008-03-04T07:00:00Z,28.9818,-94.9186,4.0,11.78331447,286.9739912,16.3,'11111222,11111222,11111222' 
TABS,ioos:station:wmo:42043:1,2008-03-04T07:30:00Z,28.9818,-94.9186,4.0,10.62533294,287.0194335,15.56,'11111222,11111222,11111222' 
TABS,ioos:station:wmo:42043:1,2008-03-04T08:00:00Z,28.9818,-94.9186,4.0,10.29713067,292.2559943,14.88,'11111222,11111222,11111222' 
TABS,ioos:station:wmo:42043:1,2008-03-04T08:30:00Z,28.9818,-94.9186,4.0,11.79363388,292.0629806,15.92,'11111222,11111222,11111222' 
TABS,ioos:station:wmo:42043:1,2008-03-04T09:00:00Z,28.9818,-94.9186,4.0,11.9795242,292.2187896,15.96,'11111222,11111222,11111222' 
TABS,ioos:station:wmo:42043:1,2008-03-04T09:30:00Z,28.9818,-94.9186,4.0,11.80857739,292.8736117,15.94,'11111222,11111222,11111222' 
TABS,ioos:station:wmo:42043:1,2008-03-04T10:00:00Z,28.9818,-94.9186,4.0,10.49270699,293.1196661,13.93,'11111222,11111222,11111222' 
TABS,ioos:station:wmo:42043:1,2008-03-04T10:30:00Z,28.9818,-94.9186,4.0,10.91661578,284.2653411,13.55,'11111222,11111222,11111222' 
TABS,ioos:station:wmo:42043:1,2008-03-04T11:00:00Z,28.9818,-94.9186,4.0,10.47068766,279.7321787,14.5,'11111222,11111222,11111222' 
TABS,ioos:station:wmo:42043:1,2008-03-04T11:30:00Z,28.9818,-94.9186,4.0,9.055567348,274.3064941,11.75,'11111222,11111222,11111222' 
TABS,ioos:station:wmo:42043:1,2008-03-04T12:00:00Z,28.9818,-94.9186,4.0,8.653328839,271.589298,12.83,'11111222,11111222,11111222' 
TABS,ioos:station:wmo:42043:1,2008-03-04T12:30:00Z,28.9818,-94.9186,4.0,9.497604961,272.2930158,12.93,'11111222,11111222,11111222' 
TABS,ioos:station:wmo:42043:1,2008-03-04T13:00:00Z,28.9818,-94.9186,4.0,9.477605183,276.8475593,11.78,'11111222,11111222,11111222' 
TABS,ioos:station:wmo:42043:1,2008-03-04T13:30:00Z,28.9818,-94.9186,4.0,10.56030303,282.2463042,13.47,'11111222,11111222,11111222' 
TABS,ioos:station:wmo:42043:1,2008-03-04T14:00:00Z,28.9818,-94.9186,4.0,10.37662758,283.2594589,12.72,'11111222,11111222,11111222' 
TABS,ioos:station:wmo:42043:1,2008-03-04T14:30:00Z,28.9818,-94.9186,4.0,10.14071003,278.8492378,12.57,'11111222,11111222,11111222' 
TABS,ioos:station:wmo:42043:1,2008-03-04T15:00:00Z,28.9818,-94.9186,4.0,9.135874342,285.81614,11.75,'11111222,11111222,11111222' 
TABS,ioos:station:wmo:42043:1,2008-03-04T15:30:00Z,28.9818,-94.9186,4.0,7.737105402,283.6051544,10.14,'11111222,11111222,11111222' 
TABS,ioos:station:wmo:42043:1,2008-03-04T16:00:00Z,28.9818,-94.9186,4.0,7.426708558,283.5497146,10.42,'11111222,11111222,11111222' 
TABS,ioos:station:wmo:42043:1,2008-03-04T16:30:00Z,28.9818,-94.9186,4.0,7.593800103,283.9447134,10.01,'11111222,11111222,11111222' 
TABS,ioos:station:wmo:42043:1,2008-03-04T17:00:00Z,28.9818,-94.9186,4.0,7.646182054,292.7754437,9.95,'11111222,11111222,11111222' 
TABS,ioos:station:wmo:42043:1,2008-03-04T17:30:00Z,28.9818,-94.9186,4.0,8.134918561,298.4867292,10.02,'11111222,11111222,11111222' 
TABS,ioos:station:wmo:42043:1,2008-03-04T18:00:00Z,28.9818,-94.9186,4.0,7.558954954,285.8933001,9.94,'11111222,11111222,11111222' 
TABS,ioos:station:wmo:42043:1,2008-03-04T18:30:00Z,28.9818,-94.9186,4.0,7.557618673,286.1328028,10.39,'11111222,11111222,11111222' 